Aquadonna — A8TW9 — position and weather

sailwx.info

Track history (hours):
 
Tides and Currents Weather Stations Pressure Air Temp Water Temp Dewpoint Dewpoint Depression Visibility Wind Speed Wind Dir Waves Ship Positions

Aquadonna

Last reported at 2014-Nov-06 00:10 UTC. Time now 2014-Dec-22 14:15 UTC.
Position S 33°39' E 013°03'.
Warning: this ship's position is 46 days out of date.

Length 280 m; draft 9.3 m.

Type: Cargo ship. MMSI: 636014449.

Date/timePositionNaut miles runAvg speedWind from/ knotsBaromVisibWave heightAir tempDewpointWater temp
2014-Nov-06 00:10S 33°39' E 013°03'  
2014-Nov-02 23:33S 30°59' E 030°28'1515.4
2014-Nov-02 22:33S 30°46' E 030°38'4214.0
2014-Nov-02 19:32S 30°08' E 030°60'1111.4
2014-Nov-02 18:33S 29°58' E 031°05'6 5.8
2014-Nov-02 17:33S 29°52' E 031°03'1 0.8
2014-Nov-02 16:16S 29°53' E 031°02'0 0.0
2014-Nov-02 15:28S 29°53' E 031°02'0 0.0
2014-Nov-02 14:28S 29°53' E 031°02'0 0.0
2014-Nov-02 13:28S 29°53' E 031°02'0 0.0
2014-Nov-02 12:28S 29°53' E 031°02'0 0.0
2014-Nov-02 11:28S 29°53' E 031°02'0 0.0
2014-Nov-02 10:28S 29°53' E 031°02'0 0.0
2014-Nov-02 09:28S 29°53' E 031°02'0 0.0
2014-Nov-02 08:28S 29°53' E 031°02'0 0.0
2014-Nov-02 07:28S 29°53' E 031°02'0 0.0
2014-Nov-02 06:28S 29°53' E 031°02'0 0.0
2014-Nov-02 05:28S 29°53' E 031°02'0 0.0
2014-Nov-02 04:34S 29°53' E 031°02'0 0.0
2014-Nov-02 03:28S 29°53' E 031°02'4 3.9
2014-Nov-02 02:33S 29°50' E 031°05'1 0.8
2014-Nov-02 01:33S 29°50' E 031°06'3 3.2
2014-Nov-02 00:33S 29°51' E 031°10'8 8.1
2014-Nov-01 23:33S 29°57' E 031°16'3 3.4
2014-Nov-01 22:33S 29°54' E 031°15'6 6.5
2014-Nov-01 21:33S 29°48' E 031°10'5 5.4
2014-Nov-01 20:33S 29°44' E 031°13'1 1.2
2014-Nov-01 19:33S 29°43' E 031°14'0 0.0
2014-Nov-01 18:33S 29°43' E 031°14'0 0.1
2014-Nov-01 17:33S 29°43' E 031°14'0 0.0
2014-Nov-01 16:33S 29°43' E 031°14'0 0.0
2014-Nov-01 15:33S 29°43' E 031°14'0 0.0
2014-Nov-01 14:33S 29°43' E 031°14'0 0.0
2014-Nov-01 13:33S 29°43' E 031°14'0 0.0
2014-Nov-01 12:33S 29°43' E 031°14'0 0.1
2014-Nov-01 11:33S 29°43' E 031°14'0 0.1
2014-Nov-01 10:33S 29°43' E 031°14'0 0.0
2014-Nov-01 09:33S 29°43' E 031°14'0 0.0
2014-Nov-01 08:33S 29°43' E 031°14'0 0.0
2014-Nov-01 07:33S 29°43' E 031°14'0 0.0
2014-Nov-01 06:33S 29°43' E 031°14'0 0.0
2014-Nov-01 05:33S 29°43' E 031°14'0 0.0
2014-Nov-01 04:33S 29°43' E 031°14'0 0.0
2014-Nov-01 03:33S 29°43' E 031°14'0 0.0
2014-Nov-01 02:33S 29°43' E 031°14'0 0.0
2014-Nov-01 01:33S 29°43' E 031°14'0 0.0
2014-Nov-01 00:33S 29°43' E 031°14'0 0.0
2014-Oct-31 23:33S 29°43' E 031°14'0 0.0
2014-Oct-31 22:33S 29°43' E 031°14'0 0.0
2014-Oct-31 21:33S 29°43' E 031°14'0 0.0
2014-Oct-31 20:33S 29°43' E 031°14'0 0.0
2014-Oct-31 19:33S 29°43' E 031°14'0 0.0
2014-Oct-31 18:33S 29°43' E 031°14'0 0.0
2014-Oct-31 17:33S 29°43' E 031°14'0 0.0
2014-Oct-31 16:33S 29°43' E 031°14'0 0.0
2014-Oct-31 15:33S 29°43' E 031°14'0 0.0
2014-Oct-31 14:33S 29°43' E 031°14'0 0.0
2014-Oct-31 13:33S 29°43' E 031°14'0 0.2
2014-Oct-31 12:33S 29°43' E 031°14'5 5.4
2014-Oct-31 11:33S 29°48' E 031°15'8 7.8
2014-Oct-31 10:33S 29°49' E 031°24'9 9.2
2014-Oct-31 09:33S 29°45' E 031°34'7 6.8
2014-Oct-31 08:33S 29°42' E 031°41'  
Track history (hours):
 
Tides and Currents Weather Stations Pressure Air Temp Water Temp Dewpoint Dewpoint Depression Visibility Wind Speed Wind Dir Waves Ship Positions

Aquadonna

Last reported at 2014-Nov-06 00:10 UTC. Time now 2014-Dec-22 14:15 UTC.
Position S 33°39' E 013°03'.
Warning: this ship's position is 46 days out of date.

Length 280 m; draft 9.3 m.

Type: Cargo ship. MMSI: 636014449.

Date/timePositionNaut miles runAvg speedWind from/ knotsBaromVisibWave heightAir tempDewpointWater temp
2014-Nov-06 00:10S 33°39' E 013°03'  
2014-Nov-02 23:33S 30°59' E 030°28'1515.4
2014-Nov-02 22:33S 30°46' E 030°38'4214.0
2014-Nov-02 19:32S 30°08' E 030°60'1111.4
2014-Nov-02 18:33S 29°58' E 031°05'6 5.8
2014-Nov-02 17:33S 29°52' E 031°03'1 0.8
2014-Nov-02 16:16S 29°53' E 031°02'0 0.0
2014-Nov-02 15:28S 29°53' E 031°02'0 0.0
2014-Nov-02 14:28S 29°53' E 031°02'0 0.0
2014-Nov-02 13:28S 29°53' E 031°02'0 0.0
2014-Nov-02 12:28S 29°53' E 031°02'0 0.0
2014-Nov-02 11:28S 29°53' E 031°02'0 0.0
2014-Nov-02 10:28S 29°53' E 031°02'0 0.0
2014-Nov-02 09:28S 29°53' E 031°02'0 0.0
2014-Nov-02 08:28S 29°53' E 031°02'0 0.0
2014-Nov-02 07:28S 29°53' E 031°02'0 0.0
2014-Nov-02 06:28S 29°53' E 031°02'0 0.0
2014-Nov-02 05:28S 29°53' E 031°02'0 0.0
2014-Nov-02 04:34S 29°53' E 031°02'0 0.0
2014-Nov-02 03:28S 29°53' E 031°02'4 3.9
2014-Nov-02 02:33S 29°50' E 031°05'1 0.8
2014-Nov-02 01:33S 29°50' E 031°06'3 3.2
2014-Nov-02 00:33S 29°51' E 031°10'8 8.1
2014-Nov-01 23:33S 29°57' E 031°16'3 3.4
2014-Nov-01 22:33S 29°54' E 031°15'6 6.5
2014-Nov-01 21:33S 29°48' E 031°10'5 5.4
2014-Nov-01 20:33S 29°44' E 031°13'1 1.2
2014-Nov-01 19:33S 29°43' E 031°14'0 0.0
2014-Nov-01 18:33S 29°43' E 031°14'0 0.1
2014-Nov-01 17:33S 29°43' E 031°14'0 0.0
2014-Nov-01 16:33S 29°43' E 031°14'0 0.0
2014-Nov-01 15:33S 29°43' E 031°14'0 0.0
2014-Nov-01 14:33S 29°43' E 031°14'0 0.0
2014-Nov-01 13:33S 29°43' E 031°14'0 0.0
2014-Nov-01 12:33S 29°43' E 031°14'0 0.1
2014-Nov-01 11:33S 29°43' E 031°14'0 0.1
2014-Nov-01 10:33S 29°43' E 031°14'0 0.0
2014-Nov-01 09:33S 29°43' E 031°14'0 0.0
2014-Nov-01 08:33S 29°43' E 031°14'0 0.0
2014-Nov-01 07:33S 29°43' E 031°14'0 0.0
2014-Nov-01 06:33S 29°43' E 031°14'0 0.0
2014-Nov-01 05:33S 29°43' E 031°14'0 0.0
2014-Nov-01 04:33S 29°43' E 031°14'0 0.0
2014-Nov-01 03:33S 29°43' E 031°14'0 0.0
2014-Nov-01 02:33S 29°43' E 031°14'0 0.0
2014-Nov-01 01:33S 29°43' E 031°14'0 0.0
2014-Nov-01 00:33S 29°43' E 031°14'0 0.0
2014-Oct-31 23:33S 29°43' E 031°14'0 0.0
2014-Oct-31 22:33S 29°43' E 031°14'0 0.0
2014-Oct-31 21:33S 29°43' E 031°14'0 0.0
2014-Oct-31 20:33S 29°43' E 031°14'0 0.0
2014-Oct-31 19:33S 29°43' E 031°14'0 0.0
2014-Oct-31 18:33S 29°43' E 031°14'0 0.0
2014-Oct-31 17:33S 29°43' E 031°14'0 0.0
2014-Oct-31 16:33S 29°43' E 031°14'0 0.0
2014-Oct-31 15:33S 29°43' E 031°14'0 0.0
2014-Oct-31 14:33S 29°43' E 031°14'0 0.0
2014-Oct-31 13:33S 29°43' E 031°14'0 0.2
2014-Oct-31 12:33S 29°43' E 031°14'5 5.4
2014-Oct-31 11:33S 29°48' E 031°15'8 7.8
2014-Oct-31 10:33S 29°49' E 031°24'9 9.2
2014-Oct-31 09:33S 29°45' E 031°34'7 6.8
2014-Oct-31 08:33S 29°42' E 031°41'  

Dump ship's entire track history